カタログに戻る

FENGYUN 1C DEB

運用中SSO
NORAD 30662·DEBRIS·🇨🇳 China

打ち上げ May 10, 1999 から Taiyuan Satellite Launch Center

Loading…

次のパス (今後24時間)

TLE

最新Source: Space-Track

元期: Sep 14, 2026, 03:18 UTC

1 30662U 99025APU 26257.13794336  .00001775  00000-0  79166-3 0  9992
2 30662  99.0334 325.7960 0033536 200.0375 190.2736 14.23800912  5481

AllMySatでFENGYUN 1C DEBをリアルタイム追跡

Download on the App Store